sat.trackr.live / text

‹ back to catalog

STARLINK-5421

NORAD 54799 · 2022-175AT

PAYLOAD ACTIVE UNKNOWN

§ Identity

Operator
Country
US
Launch date
2022-12-17
Launch site
AFETR
Launch vehicle
Mass (kg)
RCS (m²)

Purposes: comms

External: N2YO · Heavens-Above · Gunter

§ Orbital elements

Epoch: 2026-05-25T00:25:29.811360Z

Period
95.44 min
Inclination
53.2149°
Eccentricity
0.0001021
Mean motion
15.08860109 rev/d
Perigee alt
539.0 km
Apogee alt
540.4 km
Semi-major
6,917.8 km
B*
1.8971e-4
RAAN
36.4327°
Arg perigee
92.4424°
Mean anomaly
267.6685°
Rev number
19,179

§ Raw data

STARLINK-54211 54799U 22175AT  26145.01770615  .00002734  00000+0  18971-3 0  99902 54799  53.2149  36.4327 0001021  92.4424 267.6685 15.08860109191799

JSON: /api/v1/satellites/54799 · /tle

For live sub-satellite position, see the globe view (requires WebGL).

§ Visibility from observer

Set your observer location to see the next 7 days of passes ≥ 10°. The values pass through the URL so the page stays shareable.

No JS? Fill the form by hand. The geolocation button needs JavaScript.